Location: Altmatt
(47.1333°N, 8.7000°E)
Time: 18:28:02
(UTC+00:00)

Cosmos 1656 Rocket - Pass Details

Date: 13 July 2020
Orbit: 796 x 845 km, 71.1° (Epoch: 11 August)

Event Time Altitude Azimuth Distance (km) Brightness Sun altitude
Rises 22:47:12 0° 333° (NNW) 3,312 8.1 -20.5°
Reaches altitude 10° 22:49:37 10° 333° (NNW) 2,379 7.1 -20.6°
Maximum altitude 22:55:04 88° 66° (ENE) 808 3.5 -20.7°
Enters shadow 22:56:59 42° 153° (SSE) 1,130 3.9 -20.8°
